GW5781 Weather Reports


time (UTC)temp
C
wind
direction
speed
KPH
gust
KPH
rain 1hr
cm
rain 24hr
cm
rain mn
cm
humidity
%
barometer
mb
20260504192403 15 283 43.5 53.1 0.00 0.00 0.00 33 1000.6
20260504191902 15 282 30.6 48.3 0.00 0.00 0.00 33 1000.3
20260504191400 15 277 37.0 59.5 0.00 0.00 0.00 35 1000.6
20260504190855 14 281 40.2 57.9 0.00 0.00 0.00 34 1001.0
20260504190351 14 289 30.6 41.8 0.00 0.00 0.00 37 1000.7
20260504185848 13 282 38.6 48.3 0.00 0.00 0.00 37 1000.7
20260504185345 13 295 41.8 49.9 0.00 0.00 0.00 37 1000.7
20260504184841 13 297 27.4 48.3 0.00 0.00 0.00 39 1000.8
20260504184337 13 297 20.9 46.7 0.00 0.00 0.00 38 1000.6
20260504183832 13 296 33.8 51.5 0.00 0.00 0.00 37 1000.5
20260504183330 13 315 22.5 40.2 0.00 0.00 0.00 38 1000.7
20260504182828 13 290 24.1 40.2 0.00 0.00 0.00 38 1000.5
20260504182325 13 295 30.6 37.0 0.00 0.00 0.00 37 1000.4
20260504181822 14 287 37.0 48.3 0.00 0.00 0.00 35 1000.6
20260504181319 15 298 27.4 48.3 0.00 0.00 0.00 33 1000.4
20260504180818 15 304 17.7 48.3 0.00 0.00 0.00 36 1000.2
20260504180316 16 280 38.6 54.7 0.00 0.00 0.00 34 1000.0
20260504175814 15 302 24.1 49.9 0.00 0.00 0.00 35 1000.1
20260504175310 15 296 30.6 48.3 0.00 0.00 0.00 34 1000.1
20260504174809 16 272 38.6 54.7 0.00 0.00 0.00 32 1000.1
20260504174306 15 292 29.0 40.2 0.00 0.00 0.00 33 1000.0
20260504173802 15 296 27.4 43.5 0.00 0.00 0.00 34 999.8
20260504173259 15 267 46.7 54.7 0.00 0.00 0.00 34 1000.0
20260504172756 15 290 45.1 48.3 0.00 0.00 0.00 32 999.9
20260504172253 16 276 40.2 53.1 0.00 0.00 0.00 30 999.6
20260504171748 15 285 30.6 45.1 0.00 0.00 0.00 33 999.6
20260504171246 15 308 25.7 51.5 0.00 0.00 0.00 34 999.8
20260504170743 15 291 40.2 54.7 0.00 0.00 0.00 33 999.4
20260504170240 15 317 16.1 37.0 0.00 0.00 0.00 36 999.6
20260504160158 15 303 35.4 48.3 0.00 0.00 0.00 37 999.2
20260504151126 15 290 37.0 38.6 0.00 0.00 0.00 43 998.8
20260504150624 14 298 27.4 35.4 0.00 0.00 0.00 45 998.9
20260504150120 14 292 29.0 46.7 0.00 0.00 0.00 43 998.6
20260504141049 13 284 27.4 45.1 0.00 0.00 0.00 41 998.6
20260504140546 14 306 30.6 45.1 0.00 0.00 0.00 41 998.5
20260504130510 13 281 19.3 25.7 0.00 0.00 0.00 52 997.6
20260504110357 11 232 19.3 27.4 0.00 0.00 0.00 52 995.9
20260504100314 11 222 17.7 27.4 0.00 0.00 0.00 52 995.9
20260504081708 10 211 12.9 20.9 0.00 0.00 0.00 54 997.6
20260504081204 10 212 14.5 20.9 0.00 0.00 0.00 55 997.9
20260504080700 10 207 16.1 19.3 0.00 0.00 0.00 55 998.0
20260504080157 10 217 19.3 19.3 0.00 0.00 0.00 55 997.8
20260504070125 10 238 8.0 11.3 0.00 0.00 0.00 53 998.7
20260504050514 10 241 8.0 8.0 0.00 0.00 0.00 51 1001.2
20260504050011 10 251 4.8 6.4 0.00 0.00 0.00 51 1001.2
20260504045507 10 257 4.8 6.4 0.00 0.00 0.00 49 1001.4
20260504045003 10 250 4.8 6.4 0.00 0.00 0.00 49 1001.4
20260504044500 10 269 4.8 6.4 0.00 0.00 0.00 49 1001.3
20260504043957 10 248 6.4 6.4 0.00 0.00 0.00 50 1001.6
20260504043454 10 269 0.0 1.6 0.00 0.00 0.00 51 1001.4
20260504042952 10 214 0.0 1.6 0.00 0.00 0.00 50 1001.5
20260504042448 10 216 3.2 3.2 0.00 0.00 0.00 50 1001.5
20260504041945 10 243 6.4 6.4 0.00 0.00 0.00 48 1001.8
20260504041441 10 269 4.8 6.4 0.00 0.00 0.00 48 1001.6
20260504040937 10 265 4.8 6.4 0.00 0.00 0.00 48 1001.9
20260504040435 11 265 4.8 6.4 0.00 0.00 0.00 47 1001.8
20260504035931 11 244 4.8 4.8 0.00 0.00 0.00 47 1001.8
20260504035428 11 277 3.2 4.8 0.00 0.00 0.00 47 1001.9
20260504034925 11 279 3.2 3.2 0.00 0.00 0.00 47 1002.1
20260504034423 11 223 1.6 3.2 0.00 0.00 0.00 49 1002.6
20260504033919 11 218 0.0 3.2 0.00 0.00 0.00 48 1002.3
20260504033417 11 183 1.6 3.2 0.00 0.00 0.00 46 1002.4
20260504032914 11 202 3.2 4.8 0.00 0.00 0.00 44 1002.4
20260504032411 12 309 0.0 0.0 0.00 0.00 0.00 43 1002.4
20260504031908 12 282 0.0 3.2 0.00 0.00 0.00 42 1002.6
20260504031405 12 259 1.6 3.2 0.00 0.00 0.00 42 1002.7
20260504030901 12 221 3.2 3.2 0.00 0.00 0.00 41 1002.8
20260504030358 13 247 3.2 3.2 0.00 0.00 0.00 40 1002.9
20260504025854 12 271 3.2 4.8 0.00 0.00 0.00 41 1003.0
20260504025351 13 267 3.2 4.8 0.00 0.00 0.00 40 1002.8
20260504024848 13 269 3.2 4.8 0.00 0.00 0.00 39 1003.1
20260504024345 13 260 3.2 4.8 0.00 0.00 0.00 37 1002.9
20260504023842 13 285 4.8 4.8 0.00 0.00 0.00 37 1002.9
20260504023339 14 266 3.2 3.2 0.00 0.00 0.00 36 1003.0
20260504022834 15 268 3.2 3.2 0.00 0.00 0.00 35 1003.1
20260504022331 15 268 3.2 3.2 0.00 0.00 0.00 33 1002.8
20260504021827 15 267 1.6 3.2 0.00 0.00 0.00 34 1003.2
20260504021325 14 275 1.6 3.2 0.00 0.00 0.00 35 1003.0
20260504020822 15 285 3.2 3.2 0.00 0.00 0.00 35 1002.9
20260504020319 15 242 3.2 3.2 0.00 0.00 0.00 34 1002.8
20260504015814 15 251 1.6 3.2 0.00 0.00 0.00 33 1003.2
20260504015311 15 306 3.2 3.2 0.00 0.00 0.00 33 1003.2
20260504014807 16 285 3.2 3.2 0.00 0.00 0.00 32 1003.2
20260504014303 16 198 3.2 4.8 0.00 0.00 0.00 33 1003.3
20260504013801 16 263 3.2 3.2 0.00 0.00 0.00 31 1003.1
20260504013259 17 291 3.2 4.8 0.00 0.00 0.00 29 1003.1
20260504012755 17 301 4.8 8.0 0.00 0.00 0.00 28 1003.3
20260504012253 17 305 3.2 4.8 0.00 0.00 0.00 29 1003.5
20260504011749 17 294 6.4 6.4 0.00 0.00 0.00 29 1003.3
20260504011246 17 331 3.2 4.8 0.00 0.00 0.00 29 1003.2
20260504010742 17 288 4.8 6.4 0.00 0.00 0.00 29 1003.2
20260504010238 17 296 6.4 6.4 0.00 0.00 0.00 29 1003.5
20260504005735 17 301 4.8 4.8 0.00 0.00 0.00 30 1003.4
20260504005232 17 282 6.4 6.4 0.00 0.00 0.00 29 1003.5
20260504004730 18 290 6.4 9.7 0.00 0.00 0.00 28 1003.4
20260504004226 18 280 8.0 12.9 0.00 0.00 0.00 26 1003.4
20260504003723 19 271 9.7 14.5 0.00 0.00 0.00 25 1003.5
20260504003220 20 271 9.7 17.7 0.00 0.00 0.00 24 1003.5
20260504002717 20 268 17.7 24.1 0.00 0.00 0.00 23 1003.7
20260504002214 20 263 14.5 24.1 0.00 0.00 0.00 24 1003.7
20260504001712 20 266 19.3 22.5 0.00 0.00 0.00 24 1003.7
20260504001208 20 261 20.9 27.4 0.00 0.00 0.00 26 1003.9
20260504000705 20 278 30.6 32.2 0.00 0.00 0.00 26 1003.9
20260504000204 20 278 25.7 29.0 0.00 0.00 0.00 26 1003.9
20260503235700 20 260 19.3 25.7 0.00 0.00 0.00 26 1003.7
20260503235157 20 250 17.7 29.0 0.00 0.00 0.00 28 1003.8
20260503234655 21 271 24.1 29.0 0.00 0.00 0.00 25 1003.8
20260503234153 21 289 20.9 32.2 0.00 0.00 0.00 24 1003.9
20260503233649 21 281 17.7 29.0 0.00 0.00 0.00 25 1003.8
20260503233145 21 266 19.3 27.4 0.00 0.00 0.00 25 1004.0
20260503232642 21 276 20.9 32.2 0.00 0.00 0.00 26 1004.2
20260503232139 21 277 20.9 22.5 0.00 0.00 0.00 26 1004.1
20260503231638 21 281 32.2 33.8 0.00 0.00 0.00 25 1004.4
20260503231133 21 289 20.9 27.4 0.00 0.00 0.00 25 1004.4
20260503230631 21 279 16.1 32.2 0.00 0.00 0.00 25 1004.2
20260503230128 21 279 29.0 30.6 0.00 0.00 0.00 24 1004.2
20260503225625 21 286 27.4 41.8 0.00 0.00 0.00 24 1004.4
20260503225125 21 283 22.5 33.8 0.00 0.00 0.00 23 1004.5
20260503224622 21 323 24.1 33.8 0.00 0.00 0.00 24 1004.5
20260503224120 21 336 14.5 27.4 0.00 0.00 0.00 26 1004.4
20260503223618 21 317 14.5 33.8 0.00 0.00 0.00 25 1004.2
20260503223113 21 297 30.6 32.2 0.00 0.00 0.00 24 1004.5
20260503222612 21 277 27.4 30.6 0.00 0.00 0.00 25 1004.4
20260503222109 21 277 19.3 29.0 0.00 0.00 0.00 25 1004.4
20260503221607 21 292 30.6 35.4 0.00 0.00 0.00 24 1004.4
20260503221104 21 272 22.5 29.0 0.00 0.00 0.00 25 1004.4
20260503220600 21 288 20.9 29.0 0.00 0.00 0.00 25 1004.5
20260503220058 21 276 22.5 37.0 0.00 0.00 0.00 25 1004.5
20260503215555 21 291 22.5 37.0 0.00 0.00 0.00 24 1004.4
20260503215051 21 280 19.3 33.8 0.00 0.00 0.00 26 1004.6
20260503214550 21 0 12.9 29.0 0.00 0.00 0.00 26 1004.6
20260503214046 21 266 22.5 33.8 0.00 0.00 0.00 26 1004.4
20260503213544 21 273 24.1 32.2 0.00 0.00 0.00 26 1004.6
20260503213041 21 276 20.9 30.6 0.00 0.00 0.00 26 1004.7
20260503212538 21 287 19.3 24.1 0.00 0.00 0.00 25 1004.7
20260503212036 21 317 11.3 33.8 0.00 0.00 0.00 25 1004.8
20260503211532 21 284 17.7 25.7 0.00 0.00 0.00 26 1004.8
20260503211028 21 304 20.9 25.7 0.00 0.00 0.00 26 1004.9
20260503210525 21 296 30.6 37.0 0.00 0.00 0.00 25 1005.1
20260503210021 21 323 12.9 25.7 0.00 0.00 0.00 25 1005.2
20260503205518 21 291 8.0 24.1 0.00 0.00 0.00 24 1005.0
20260503205014 21 341 11.3 25.7 0.00 0.00 0.00 26 1005.3
20260503204511 21 344 24.1 33.8 0.00 0.00 0.00 24 1005.3
20260503204008 21 291 29.0 30.6 0.00 0.00 0.00 26 1005.0
20260503203505 21 279 20.9 24.1 0.00 0.00 0.00 25 1005.6
20260503203002 21 309 11.3 27.4 0.00 0.00 0.00 25 1005.6
20260503202500 21 300 14.5 29.0 0.00 0.00 0.00 25 1005.5
20260503201958 20 295 24.1 33.8 0.00 0.00 0.00 25 1005.7
20260503201455 21 298 25.7 38.6 0.00 0.00 0.00 25 1005.6
20260503200953 20 307 14.5 30.6 0.00 0.00 0.00 26 1005.5
20260503200449 21 291 9.7 29.0 0.00 0.00 0.00 26 1005.6
20260503195945 20 281 22.5 45.1 0.00 0.00 0.00 26 1005.8
20260503195443 20 298 12.9 22.5 0.00 0.00 0.00 27 1005.8
20260503194939 21 328 14.5 40.2 0.00 0.00 0.00 25 1005.7
20260503194437 21 263 22.5 30.6 0.00 0.00 0.00 27 1006.0
20260503193932 20 326 9.7 19.3 0.00 0.00 0.00 28 1005.9
20260503193427 20 295 19.3 33.8 0.00 0.00 0.00 28 1006.0
20260503192923 20 326 17.7 30.6 0.00 0.00 0.00 28 1006.1